Location: All Nations United Methodist Church
(33.0215°N, 96.7483°W)
Time: 15:25:48
(UTC+00:00)

ERBS - Pass Details

Date: 24 January 2021
Orbit: 405 x 418 km, 57.0° (Epoch: 07 March)

Event Time Altitude Azimuth Distance (km) Brightness Sun altitude
Rises 12:13:33 0° 200° (SSW) 2,318 5.9 -15.5°
Reaches altitude 10° 12:15:43 10° 191° (S) 1,459 5.0 -15.0°
Maximum altitude 12:18:43 35° 124° (SE) 681 3.9 -14.4°
Drops below altitude 10° 12:21:43 10° 57° (ENE) 1,463 5.6 -13.8°
Sets 12:23:53 0° 48° (NE) 2,325 6.5 -13.3°
